EW3084 Weather Reports


Display with metric or nautical units.
time (UTC)temp
F
wind
direction
speed
MPH
gust
MPH
rain 1hr
in
rain 24hr
in
rain mn
in
humidity
%
barometer
mb
20260506143603 54 284 3.0 5.0 0.00 0.00 0.00 24
20260506142703 55 268 4.0 10.0 0.00 0.00 0.00 23
20260506142017 56 264 5.0 12.0 0.00 0.00 0.00 24
20260506140903 57 270 4.0 17.0 0.00 0.00 0.00 23
20260506140003 56 285 1.0 5.0 0.00 0.00 0.00 25
20260506135403 55 336 1.0 3.0 0.00 0.00 0.00 27
20260506134503 55 279 2.0 5.0 0.00 0.00 0.00 25
20260506133603 55 156 3.0 10.0 0.00 0.00 0.00 24
20260506132703 56 178 4.0 8.0 0.00 0.00 0.00 23
20260506131803 55 146 3.0 12.0 0.00 0.00 0.00 24
20260506130903 55 284 2.0 5.0 0.00 0.00 0.00 24
20260506130003 55 244 3.0 11.0 0.00 0.00 0.00 23
20260506125403 55 185 2.0 8.0 0.00 0.00 0.00 24
20260506124503 54 285 1.0 4.0 0.00 0.00 0.00 25
20260506123603 54 250 2.0 6.0 0.00 0.00 0.00 25
20260506122703 56 232 4.0 11.0 0.00 0.00 0.00 23
20260506121803 56 279 2.0 7.0 0.00 0.00 0.00 24
20260506120903 55 301 2.0 7.0 0.00 0.00 0.00 26
20260506120219 54 263 2.0 7.0 0.00 0.00 0.00 27
20260506115403 53 258 3.0 7.0 0.00 0.00 0.00 24
20260506114503 54 220 3.0 9.0 0.00 0.00 0.00 25
20260506113817 55 163 3.0 11.0 0.00 0.00 0.00 24
20260506112703 54 216 3.0 7.0 0.00 0.00 0.00 26
20260506111803 54 209 3.0 10.0 0.00 0.00 0.00 25
20260506110903 54 193 3.0 10.0 0.00 0.00 0.00 25
20260506110218 54 203 3.0 9.0 0.00 0.00 0.00 27
20260506105403 53 306 1.0 4.0 0.00 0.00 0.00 27
20260506104503 51 270 1.0 4.0 0.00 0.00 0.00 27
20260506103603 51 267 2.0 8.0 0.00 0.00 0.00 26
20260506102916 52 274 4.0 9.0 0.00 0.00 0.00 27
20260506101803 52 249 2.0 7.0 0.00 0.00 0.00 29
20260506100903 51 280 3.0 7.0 0.00 0.00 0.00 26
20260506100218 50 277 3.0 7.0 0.00 0.00 0.00 29
20260506095403 51 240 2.0 6.0 0.00 0.00 0.00 28
20260506094503 51 266 2.0 6.0 0.00 0.00 0.00 30
20260506093603 52 280 2.0 7.0 0.00 0.00 0.00 28
20260506092703 52 247 2.0 6.0 0.00 0.00 0.00 28
20260506091803 53 278 3.0 7.0 0.00 0.00 0.00 28
20260506090903 52 272 2.0 5.0 0.00 0.00 0.00 28
20260506090003 52 187 3.0 9.0 0.00 0.00 0.00 30
20260506085403 52 139 3.0 9.0 0.00 0.00 0.00 30
20260506084503 52 126 3.0 7.0 0.00 0.00 0.00 33
20260506083603 52 136 3.0 9.0 0.00 0.00 0.00 33
20260506082919 51 136 3.0 9.0 0.00 0.00 0.00 35
20260506081803 50 165 3.0 10.0 0.00 0.00 0.00 37
20260506080903 50 162 2.0 10.0 0.00 0.00 0.00 37
20260506072703 47 155 2.0 7.0 0.00 0.00 0.00 45
20260506072018 47 174 3.0 11.0 0.00 0.00 0.00 49
20260506070903 45 148 2.0 7.0 0.00 0.00 0.00 52
20260506061803 37 70 0.0 3.0 0.00 0.00 0.00 82
20260506060903 36 110 0.0 2.0 0.00 0.00 0.00 84
20260506050903 30 0 0.0 0.0 0.00 0.00 0.00 89
20260506044503 29 0 0.0 0.0 0.00 0.00 0.00 89
20260506043603 28 0 0.0 0.0 0.00 0.00 0.00 89
20260506042703 28 0 0.0 0.0 0.00 0.00 0.00 89
20260506042017 28 0 0.0 0.0 0.00 0.00 0.00 89
20260506040903 28 0 0.0 0.0 0.00 0.00 0.00 89
20260506040003 27 0 0.0 0.0 0.00 0.00 0.00 88
20260506035403 27 0 0.0 0.0 0.00 0.00 0.00 87
20260506034719 27 0 0.0 0.0 0.00 0.00 0.00 87
20260506033603 27 0 0.0 0.0 0.00 0.00 0.00 87
20260506032917 27 0 0.0 0.0 0.00 0.00 0.00 86
20260506031803 28 0 0.0 0.0 0.00 0.00 0.00 85
20260506030903 28 0 0.0 0.0 0.00 0.00 0.00 86
20260506030003 28 0 0.0 0.0 0.00 0.00 0.00 86
20260506025619 29 357 0.0 1.0 0.00 0.00 0.00 86
20260506024503 29 0 0.0 0.0 0.00 0.00 0.00 85
20260506023603 29 0 0.0 0.0 0.00 0.00 0.00 85
20260506022703 29 0 0.0 0.0 0.00 0.00 0.00 85
20260506021803 29 0 0.0 0.0 0.00 0.00 0.00 85
20260506020903 29 0 0.0 0.0 0.00 0.00 0.00 86
20260506020003 30 303 0.0 1.0 0.00 0.00 0.00 85
20260506015403 30 329 0.0 2.0 0.00 0.00 0.00 86
20260506014503 29 331 0.0 2.0 0.00 0.00 0.00 86
20260506013603 29 0 0.0 0.0 0.00 0.00 0.00 86
20260506012703 29 0 0.0 0.0 0.00 0.00 0.00 85
20260506011803 29 0 0.0 0.0 0.00 0.00 0.00 85
20260506010903 29 0 0.0 0.0 0.00 0.00 0.00 85
20260506010003 29 0 0.0 0.0 0.00 0.00 0.00 84
20260506005618 29 0 0.0 0.0 0.00 0.00 0.00 83
20260506004503 30 0 0.0 0.0 0.00 0.00 0.00 83
20260506003603 30 0 0.0 0.0 0.00 0.00 0.00 83
20260506002703 31 351 0.0 1.0 0.00 0.00 0.00 83
20260506001803 31 351 0.0 1.0 0.00 0.00 0.00 83
20260506000903 31 349 0.0 1.0 0.00 0.00 0.00 83
20260506000003 30 347 0.0 3.0 0.00 0.00 0.00 82
20260505235403 30 344 0.0 2.0 0.00 0.00 0.00 81
20260505234503 30 0 0.0 0.0 0.00 0.00 0.00 79
20260505233603 30 356 0.0 1.0 0.00 0.00 0.00 78
20260505232916 30 0 0.0 0.0 0.00 0.00 0.00 78
20260505231803 31 0 0.0 0.0 0.00 0.00 0.00 77
20260505230903 31 0 0.0 0.0 0.00 0.00 0.00 76
20260505230218 32 356 0.0 1.0 0.00 0.00 0.00 76
20260505225403 32 356 0.0 1.0 0.00 0.00 0.00 75
20260505224503 33 356 0.0 1.0 0.00 0.00 0.00 74
20260505223603 34 0 0.0 0.0 0.00 0.00 0.00 72
20260505222916 34 0 0.0 0.0 0.00 0.00 0.00 71
20260505221803 34 355 0.0 1.0 0.00 0.00 0.00 70
20260505221118 34 358 0.0 2.0 0.00 0.00 0.00 70
20260505220003 34 0 0.0 0.0 0.00 0.00 0.00 67
20260505215403 34 0 0.0 0.0 0.00 0.00 0.00 66
20260505214503 34 0 0.0 0.0 0.00 0.00 0.00 64
20260505213603 34 0 0.0 0.0 0.00 0.00 0.00 64
20260505212703 35 0 0.0 0.0 0.00 0.00 0.00 61
20260505211803 35 0 0.0 0.0 0.00 0.00 0.00 60
20260505210903 36 0 0.0 0.0 0.00 0.00 0.00 59
20260505210217 37 0 0.0 0.0 0.00 0.00 0.00 57
20260505205403 38 0 0.0 0.0 0.00 0.00 0.00 55
20260505204503 39 359 0.0 1.0 0.00 0.00 0.00 49
20260505203819 39 0 0.0 0.0 0.00 0.00 0.00 48
20260505202703 39 358 0.0 2.0 0.00 0.00 0.00 52
20260505201803 39 0 0.0 0.0 0.00 0.00 0.00 53
20260505200903 39 356 0.0 1.0 0.00 0.00 0.00 54
20260505200217 40 356 0.0 1.0 0.00 0.00 0.00 54
20260505195403 40 358 0.0 3.0 0.00 0.00 0.00 51
20260505194503 40 357 0.0 3.0 0.00 0.00 0.00 52
20260505193603 41 358 0.0 3.0 0.00 0.00 0.00 54
20260505192703 41 315 0.0 2.0 0.00 0.00 0.00 52
20260505191803 42 294 0.0 1.0 0.00 0.00 0.00 49
20260505190903 42 294 0.0 1.0 0.00 0.00 0.00 49
20260505190003 43 298 0.0 3.0 0.00 0.00 0.00 45
20260505185616 43 286 1.0 3.0 0.00 0.00 0.00 44
20260505184503 44 287 1.0 5.0 0.00 0.00 0.00 42
20260505183603 44 359 0.0 2.0 0.00 0.00 0.00 47
20260505182703 45 309 1.0 4.0 0.00 0.00 0.00 43
20260505181803 45 280 3.0 10.0 0.00 0.00 0.00 40
20260505180903 46 275 4.0 9.0 0.00 0.00 0.00 39
20260505180003 48 287 3.0 6.0 0.00 0.00 0.00 36
20260505175403 48 287 3.0 6.0 0.00 0.00 0.00 35
20260505174503 48 280 3.0 5.0 0.00 0.00 0.00 35
20260505173603 48 276 4.0 8.0 0.00 0.00 0.00 34
20260505172703 48 274 3.0 9.0 0.00 0.00 0.00 35
20260505171803 48 277 5.0 13.0 0.00 0.00 0.00 37
20260505170903 48 262 4.0 11.0 0.00 0.00 0.00 39
20260505170003 47 273 3.0 10.0 0.00 0.00 0.00 40
20260505165403 47 269 2.0 6.0 0.00 0.00 0.00 40
20260505164718 46 269 2.0 5.0 0.00 0.00 0.00 41
20260505163603 46 274 3.0 11.0 0.00 0.00 0.00 40
20260505162703 46 279 4.0 11.0 0.00 0.00 0.00 40
20260505162016 46 276 5.0 12.0 0.00 0.00 0.00 39
20260505160903 46 280 7.0 16.0 0.00 0.00 0.00 38
20260505152917 49 306 3.0 9.0 0.00 0.00 0.00 33
20260505151803 47 313 3.0 7.0 0.00 0.00 0.00 38
20260505150903 47 304 3.0 10.0 0.00 0.01 0.00 37